STARLINK-1513 (45786 NORAD) Tracking and Keplerian Element Data

This shows tracking and keplerian element data for the satellite.

Feedback or suggestion? Click here.




ElementValue
Catalog45786
NameSTARLINK-1513
Epoch Orbit428
Epoch Day185.50001157
Epoch Year2020
RAAN197.5813
Inclination52.9979
Eccentricity0.0001163
Argument of Perigee110.7698
Mean Anonmoly249.1578
Mean Motion15.63557109
Decay Rate-0.0095023
L11 45786U 20038BJ 20185.50001157 -.00950230 00000-0 -11090-1 0 9991
L22 45786 52.9979 197.5813 0001163 110.7698 249.1578 15.63557109 4282

Live tracking and technical data element details for STARLINK-1513 (NORAD 45786). STARLINK-1513 can be tracked NOW for your location showing map with azimuth and elevation plus other details from your city location.

Track the satellite on the map from your city or location and see movement details for azimuth, elevation, latitude, longitude, range, height, and movement on the map or in text.







IsCatalogInMostPopularTable: catalog: 45786, numindb: 8
Update: records affected: 1



GetName: 45786 STARLINK-1513

Hit Count: updated at: Sat, 04 Jul 2020 03:12:53 GMT